Temp
30 30 29 29 28 28 27 26 26 26 25 24 24 23 23 23 22 22 22 23 23 24 25 25 25 25 26 27 26 27 26 26 26 25 26 26 26 26 26 26 26 26 25 20 17 18 21 22 22 20 22 22 20 19 24 23 20 19 19 18 17 17 26
29 29 29 28 28 28 27 26 25 24 23 22 22 22 22 22 21 21 21 21 21 22 23 23 22 23 24 25 24 25 25 25 24 23 24 24 24 25 25 24 25 26 25 24 16 17 21 19 23 20 23 21 19 19 21 20 18 18 19 16 16 15 15
25 25 25 25 25 26 25 25 24 23 22 22 22 21 21 21 21 20 20 20 20 21 21 21 20 21 21 23 22 22 23 23 23 23 22 23 23 23 24 22 24 25 24 23 20 18 17 17 20 20 21 21 22 21 21 19 18 17 17 16 16 14 12
24 23 24 24 24 24 24 23 23 22 22 22 22 21 21 21 20 20 20 20 20 20 20 20 19 20 20 20 20 20 20 21 21 22 22 22 22 22 22 21 21 23 25 24 22 17 17 19 17 19 21 21 21 19 17 18 17 16 16 16 15 15 13
20 21 22 22 23 23 22 22 22 22 21 21 21 21 21 21 20 20 20 20 20 20 20 19 19 19 19 19 19 19 19 20 19 20 21 21 22 21 21 21 20 20 22 22 21 20 17 18 17 18 18 19 16 16 15 13 13 15 15 15 16 14 14
22 21 21 22 22 22 22 22 22 21 21 21 21 20 20 20 20 20 19 19 19 19 19 19 19 19 19 18 18 18 19 19 18 18 18 19 19 20 20 19 18 19 19 20 21 21 15 15 14 14 14 15 16 15 13 12 11 11 12 12 12 13 13
21 21 20 21 21 21 21 21 20 20 20 20 19 19 18 18 18 19 18 18 18 18 18 18 18 18 18 17 18 18 18 18 17 18 17 18 18 19 19 18 18 18 17 17 18 18 18 15 15 16 14 15 15 16 15 13 11 10 12 11 11 12 13
20 20 18 19 19 20 19 19 19 18 18 18 18 17 17 17 17 17 17 17 17 17 17 17 17 17 18 18 18 18 18 18 18 17 16 17 18 18 17 17 17 16 16 16 16 17 16 15 13 14 14 13 12 10 10 11 12 11 12 11 11 11 11
19 18 18 18 18 18 18 17 18 18 17 16 16 16 16 16 16 16 16 16 16 17 16 16 17 17 17 17 17 18 18 19 19 18 16 16 16 16 16 16 16 16 15 15 15 15 15 13 13 12 11 9 9 9 11 11 11 11 13 12 10 10 10
18 17 17 17 17 16 16 17 17 19 19 19 17 16 16 16 16 16 16 16 16 16 16 16 17 17 17 17 17 17 17 18 18 19 19 19 17 16 16 16 15 15 14 14 13 13 14 11 11 12 10 9 10 13 13 11 10 8 10 8 7 7 6
15 16 17 16 16 16 17 16 17 19 23 26 26 20 17 16 16 16 15 15 15 16 16 16 17 17 17 17 16 17 17 17 18 18 18 18 18 18 17 16 14 14 14 13 12 13 12 12 11 12 13 11 11 12 11 11 10 9 8 5 4 3 3
16 16 17 17 16 16 16 16 18 22 25 26 27 26 22 19 18 17 16 16 16 16 16 17 17 17 17 16 16 16 17 17 17 17 17 18 18 17 17 18 18 16 14 13 12 12 12 12 11 12 13 11 11 10 11 10 10 9 7 4 4 5 5
16 16 17 17 16 17 17 17 19 22 25 26 27 28 26 24 20 18 18 18 17 17 17 17 17 16 15 15 15 15 16 16 16 16 17 17 17 17 16 17 18 18 18 17 14 13 13 13 13 12 12 13 12 12 10 10 9 8 7 6 5 6 5
14 15 15 16 16 17 18 18 20 22 24 25 26 27 27 24 24 23 20 18 18 18 17 17 17 16 16 16 15 14 14 15 15 15 15 15 15 15 15 15 16 16 16 17 16 15 13 14 14 12 13 13 14 11 9 10 8 9 7 7 6 8 8
13 13 14 14 15 15 15 17 20 21 22 24 25 26 25 23 23 23 23 22 20 19 18 18 18 17 17 17 16 15 14 14 14 14 14 14 13 14 14 14 14 14 15 15 15 15 15 15 15 14 14 13 14 12 13 13 11 11 10 8 6 3 3
13 12 12 13 13 14 14 16 18 19 20 22 23 24 21 21 21 21 21 22 22 20 19 19 18 17 17 16 16 15 15 14 14 13 12 12 12 12 13 13 15 16 18 16 16 15 14 14 14 16 14 13 13 12 12 12 9 7 6 4 2 2 2
12 13 12 12 12 12 13 14 17 17 18 19 22 21 19 19 19 19 19 20 21 22 20 19 19 18 17 16 15 15 15 15 14 12 11 11 11 11 11 11 13 14 17 20 21 20 20 19 19 20 20 19 19 13 12 10 7 5 6 3 2 3 2
11 12 11 11 11 12 12 13 15 16 16 18 20 19 17 17 17 17 18 18 19 20 20 20 17 17 17 16 15 15 15 15 13 11 11 10 9 9 9 10 12 11 11 15 17 19 19 19 18 18 18 19 20 16 13 9 6 8 7 4 5 3 5
9 9 10 10 11 13 12 11 12 14 15 16 18 17 16 16 15 15 16 17 17 19 19 19 17 16 16 16 15 16 17 17 13 11 11 10 9 8 8 9 11 8 8 8 9 11 13 14 16 16 15 15 16 16 14 11 10 10 7 4 5 5 5
8 7 7 9 10 10 10 9 9 11 13 14 15 16 14 14 13 12 13 15 15 15 16 17 16 15 15 15 15 15 16 16 15 11 11 11 9 8 7 11 9 9 9 7 8 8 10 10 12 13 13 13 13 14 15 13 10 10 9 7 6 5 5
5 5 5 7 8 8 7 8 7 8 11 12 13 14 13 12 11 12 12 12 13 14 13 14 14 13 13 14 14 14 15 17 17 14 11 11 9 10 11 12 9 9 9 7 7 7 7 7 8 9 10 11 12 12 12 13 12 11 11 9 7 5 5
4 3 3 4 5 4 4 6 8 6 8 10 10 11 12 10 10 12 11 10 11 12 12 13 14 13 12 12 13 14 15 16 16 15 12 11 12 13 13 11 10 8 7 6 5 5 4 4 4 4 6 7 9 10 11 12 12 12 11 11 10 9 6
1 1 1 2 2 2 2 2 3 7 6 7 8 8 9 10 10 12 11 9 8 9 10 12 13 13 13 12 13 13 14 15 15 14 13 13 12 12 12 11 9 7 5 4 4 4 2 3 3 3 3 5 6 8 10 11 11 12 12 11 11 11 11
-0 0 -0 -1 -0 1 1 1 -0 3 5 5 6 7 8 9 10 11 9 9 8 9 10 10 11 12 13 13 13 13 13 13 13 13 14 14 12 11 11 9 7 6 5 4 3 2 2 2 4 4 4 4 6 7 8 10 11 11 11 11 11 10 9
-0 -0 0 -0 -1 -1 -0 -0 -0 -1 3 5 5 6 7 8 8 8 9 7 7 8 8 10 11 12 12 12 13 12 12 12 12 12 13 13 13 11 9 8 6 5 5 3 2 2 2 3 4 5 6 7 7 7 8 7 8 8 8 8 8 8 7
-1 -1 -1 -1 -1 -1 -1 -0 -1 -1 -0 2 3 4 5 6 6 7 7 7 7 8 9 9 9 10 10 11 11 11 10 10 10 11 12 12 12 11 8 7 6 5 4 3 3 3 3 4 5 6 7 7 7 6 4 5 4 5 4 4 3 2 2
-2 -2 -1 -1 -0 -0 -0 -1 -1 -2 -2 -1 -2 -2 0 2 2 5 6 4 3 5 4 6 7 7 8 9 10 11 11 10 11 10 10 10 11 11 9 8 7 6 5 5 5 4 5 6 6 7 6 4 4 3 4 5 4 3 3 3 2 1 0
-2 -1 -1 -1 -1 -0 -0 -1 -1 -1 -1 1 3 4 5 3 1 -1 -1 -0 1 1 3 4 5 6 6 7 8 9 9 9 9 9 8 9 9 9 10 9 9 9 8 7 7 6 6 5 5 4 4 4 4 3 4 5 3 3 2 3 1 -1 -2
0 1 -0 -0 -1 -1 -1 -0 -0 1 5 5 6 5 4 4 4 4 3 4 6 5 4 2 1 1 2 3 4 5 6 6 6 6 7 8 8 8 8 7 7 6 6 5 5 4 5 3 4 3 4 3 3 3 3 5 3 3 2 2 1 -2 -1
1 2 1 -0 1 2 0 -0 2 6 7 7 7 6 6 6 7 7 6 7 8 7 3 1 -1 -2 -2 -0 0 1 1 2 3 3 3 3 5 4 3 3 3 4 3 3 3 3 3 3 3 2 3 2 2 3 3 4 4 2 3 0 -1 -2 -2
4 4 4 3 0 3 5 5 5 5 6 6 6 6 6 6 6 7 7 7 6 4 0 -2 -4 -3 -2 -2 -1 -1 -1 -0 -0 0 1 1 1 1 1 2 1 1 2 2 2 2 2 2 2 2 2 1 1 1 2 2 3 3 2 0 -0 -2 -2
3 3 3 4 4 3 1 3 4 4 5 5 5 5 5 5 6 6 6 6 7 2 -1 -4 -4 -4 -3 -2 -2 -1 -1 -1 -2 -1 -2 -1 -1 -1 -1 -0 -0 2 1 1 0 0 1 1 1 1 1 1 1 0 1 1 0 0 -0 -0 0 -1 -1
2 2 2 3 3 3 3 2 3 4 4 4 5 5 4 5 5 5 5 5 3 -1 -3 -4 -4 -3 -2 -2 -3 -2 -2 -1 -1 -1 -1 -1 -1 -1 -1 -0 1 2 0 0 0 1 0 0 0 0 0 0 0 -1 -1 -0 -1 -1 -1 -1 -2 -2 -2
1 1 1 1 1 1 2 2 2 3 3 3 4 4 4 3 3 4 5 4 0 -1 -3 -3 -4 -3 -3 -2 -1 -1 -1 -1 -1 -1 -1 -1 -1 -1 0 0 1 -0 -0 -0 0 -0 -0 -0 -0 -0 -1 -1 -1 -1 -1 -1 -2 -2 -2 -3 -3 -3 -3
-6 -3 -1 -2 -1 -0 1 1 1 1 2 2 2 3 3 3 -1 -4 -4 -3 -2 -2 -2 -3 -3 -4 -3 -3 -2 -1 -1 -1 -1 -1 -1 -1 -1 -1 -0 -0 -0 -1 -1 -1 -1 -1 -1 -1 -1 -1 -1 -2 -2 -3 -3 -3 -3 -3 -3 -3 -3 -4 -4
-8 -8 -4 -2 -1 -1 -1 -0 -0 -0 0 1 2 2 2 -4 -6 -7 -6 -5 -3 -3 -3 -3 -3 -3 -3 -2 -2 -2 -2 -1 -2 -1 -1 -1 -1 -1 -1 -1 -1 -1 -1 -1 -1 -1 -1 -1 -2 -1 -2 -2 -2 -3 -3 -3 -3 -3 -3 -3 -4 -4 -4
MSLP
1015.51 1015.59 1015.71 1015.83 1015.95 1016.07 1016.19 1016.35 1016.51 1016.71 1016.91 1017.03 1017.15 1017.27 1017.35 1017.51 1017.71 1017.71 1017.63 1017.79 1017.75 1017.83 1017.91 1017.83 1017.71 1017.59 1017.71 1017.95 1018.07 1017.91 1018.11 1018.27 1018.31 1018.55 1018.47 1018.51 1018.59 1018.51 1018.51 1018.59 1018.47 1018.23 1017.67 1018.87 1019.87 1019.63 1019.63 1020.11 1020.39 1020.91 1020.91 1021.23 1021.59 1021.99 1022.03 1022.35 1022.67 1022.95 1023.11 1023.15 1023.23 1023.35 1023.35
1015.19 1015.31 1015.39 1015.47 1015.51 1015.67 1015.79 1015.95 1016.11 1016.35 1016.59 1016.71 1016.83 1016.95 1017.11 1017.23 1017.35 1017.39 1017.35 1017.55 1017.47 1017.59 1017.67 1017.63 1017.59 1017.39 1017.59 1017.75 1017.79 1017.67 1017.75 1017.79 1018.11 1018.23 1018.27 1018.23 1018.23 1018.07 1018.07 1018.31 1018.23 1017.87 1017.91 1017.59 1019.67 1019.79 1019.91 1020.07 1020.19 1020.35 1020.55 1020.67 1021.11 1021.51 1021.79 1022.03 1022.39 1022.71 1022.79 1022.95 1023.15 1023.27 1023.31
1015.07 1015.11 1015.19 1015.23 1015.27 1015.39 1015.51 1015.63 1015.83 1016.03 1016.19 1016.27 1016.39 1016.47 1016.63 1016.75 1016.87 1016.91 1016.99 1017.11 1017.03 1017.15 1017.31 1017.39 1017.27 1017.15 1017.39 1017.63 1017.55 1017.39 1017.51 1017.67 1017.75 1017.83 1017.87 1017.59 1017.79 1017.71 1017.59 1018.07 1017.91 1017.67 1017.59 1017.59 1018.39 1019.39 1019.63 1019.87 1019.91 1019.71 1019.95 1020.47 1020.63 1020.91 1021.19 1021.55 1021.95 1022.23 1022.51 1022.67 1022.79 1022.95 1023.11
1015.11 1015.07 1015.11 1015.07 1015.11 1015.23 1015.27 1015.43 1015.59 1015.71 1015.79 1015.83 1015.95 1016.07 1016.15 1016.31 1016.43 1016.47 1016.47 1016.51 1016.55 1016.75 1016.91 1016.83 1016.87 1016.71 1017.15 1017.27 1017.23 1017.07 1017.31 1017.39 1017.47 1017.51 1017.39 1017.43 1017.43 1017.55 1017.47 1017.71 1018.03 1017.63 1017.03 1017.07 1017.55 1018.83 1019.07 1019.35 1019.63 1019.63 1019.79 1020.11 1020.43 1020.79 1021.15 1021.23 1021.59 1021.99 1022.27 1022.47 1022.63 1022.67 1022.79
1015.27 1015.23 1015.19 1015.07 1014.99 1014.99 1015.03 1015.11 1015.19 1015.27 1015.39 1015.51 1015.63 1015.67 1015.71 1015.83 1015.95 1015.99 1016.03 1016.07 1016.11 1016.19 1016.35 1016.35 1016.27 1016.19 1016.67 1016.79 1016.83 1016.63 1016.91 1016.95 1017.19 1017.15 1017.27 1017.11 1017.07 1017.35 1017.39 1017.67 1017.79 1017.63 1017.59 1017.39 1017.27 1017.63 1018.75 1018.99 1019.19 1019.31 1019.59 1019.83 1020.27 1020.75 1021.15 1021.39 1021.51 1021.59 1021.87 1022.15 1022.31 1022.47 1022.47
1015.31 1015.27 1015.15 1015.11 1014.99 1014.91 1014.87 1014.91 1014.99 1015.03 1015.03 1015.19 1015.31 1015.43 1015.47 1015.51 1015.55 1015.55 1015.63 1015.67 1015.71 1015.83 1015.87 1015.83 1015.71 1015.83 1016.11 1016.23 1016.15 1015.95 1016.19 1016.47 1016.55 1016.83 1016.87 1016.79 1016.87 1016.99 1017.31 1017.47 1017.59 1017.67 1017.63 1017.47 1016.99 1017.23 1018.51 1019.03 1019.07 1019.47 1019.63 1019.67 1019.91 1020.19 1020.79 1021.27 1021.51 1021.75 1021.83 1021.99 1022.11 1022.15 1022.31
1015.39 1015.31 1015.23 1015.11 1015.07 1014.95 1014.91 1014.83 1014.83 1014.91 1014.95 1015.03 1015.11 1015.19 1015.23 1015.27 1015.27 1015.23 1015.27 1015.19 1015.23 1015.23 1015.27 1015.27 1015.23 1015.35 1015.55 1015.59 1015.51 1015.59 1015.63 1015.87 1016.19 1016.27 1016.35 1016.39 1016.55 1016.83 1017.03 1017.11 1017.19 1017.43 1017.59 1017.43 1017.23 1017.35 1017.59 1018.31 1018.75 1018.67 1019.03 1019.51 1019.79 1019.87 1019.87 1020.19 1021.07 1021.35 1021.35 1021.75 1021.75 1021.75 1021.87
1015.55 1015.35 1015.27 1015.11 1015.03 1014.95 1014.91 1014.87 1014.83 1014.87 1014.91 1014.91 1014.95 1014.99 1014.99 1014.95 1014.95 1014.91 1014.83 1014.75 1014.75 1014.75 1014.71 1014.67 1014.71 1014.75 1014.79 1014.87 1014.87 1015.03 1015.11 1015.47 1015.55 1015.79 1015.99 1015.91 1016.35 1016.51 1016.71 1016.79 1016.95 1017.31 1017.43 1017.43 1017.39 1017.15 1017.39 1017.79 1018.35 1018.75 1018.87 1019.43 1019.91 1020.23 1020.39 1020.27 1020.23 1020.35 1020.51 1021.03 1021.31 1021.39 1021.55
1015.63 1015.43 1015.19 1015.03 1014.99 1014.91 1014.91 1014.87 1014.83 1014.79 1014.75 1014.75 1014.71 1014.79 1014.71 1014.63 1014.59 1014.51 1014.43 1014.35 1014.27 1014.23 1014.23 1014.23 1014.23 1014.27 1014.23 1014.27 1014.27 1014.35 1014.51 1014.67 1014.83 1015.15 1015.27 1015.43 1015.87 1016.07 1016.23 1016.43 1016.63 1016.75 1016.99 1017.07 1017.11 1017.11 1017.27 1017.83 1018.07 1018.11 1018.55 1019.07 1019.19 1018.91 1018.51 1019.75 1020.27 1020.03 1020.03 1020.59 1021.03 1021.11 1021.39
1015.75 1015.55 1015.31 1015.07 1014.91 1014.87 1014.83 1014.83 1014.75 1014.63 1014.51 1014.39 1014.43 1014.43 1014.39 1014.35 1014.27 1014.23 1014.11 1013.99 1013.79 1013.67 1013.67 1013.67 1013.75 1013.67 1013.71 1013.79 1013.79 1013.91 1013.99 1014.19 1014.35 1014.39 1014.39 1014.59 1015.23 1015.47 1015.71 1015.87 1016.03 1016.27 1016.31 1016.59 1016.79 1016.43 1016.79 1017.55 1017.31 1017.23 1017.83 1017.95 1017.91 1018.43 1019.11 1019.59 1019.95 1020.23 1020.23 1020.95 1020.91 1020.91 1020.99
1015.95 1015.67 1015.43 1015.23 1015.03 1014.87 1014.79 1014.75 1014.63 1014.47 1014.27 1013.95 1013.79 1013.91 1013.99 1013.91 1013.79 1013.75 1013.71 1013.59 1013.39 1013.11 1013.03 1013.11 1013.19 1013.23 1013.27 1013.39 1013.47 1013.51 1013.67 1013.83 1013.87 1013.91 1014.07 1014.27 1014.43 1014.55 1014.71 1015.07 1015.43 1015.47 1015.67 1016.07 1015.95 1015.91 1016.47 1016.35 1016.19 1016.47 1017.07 1017.75 1018.03 1018.47 1018.63 1018.83 1019.35 1019.55 1020.11 1020.47 1020.63 1020.15 1019.95
1015.99 1015.75 1015.55 1015.31 1015.11 1014.95 1014.79 1014.67 1014.51 1014.27 1013.91 1013.63 1013.35 1013.19 1013.19 1013.23 1013.19 1013.15 1013.07 1012.99 1012.91 1012.71 1012.59 1012.55 1012.59 1012.63 1012.71 1012.79 1012.83 1012.99 1013.19 1013.27 1013.39 1013.55 1013.63 1013.83 1014.03 1014.19 1014.19 1014.03 1014.03 1014.39 1015.15 1015.39 1015.47 1015.71 1015.51 1015.67 1015.71 1015.91 1016.63 1017.07 1017.63 1018.11 1018.55 1018.79 1018.87 1019.11 1019.39 1019.91 1020.07 1019.63 1019.39
1016.31 1016.03 1015.71 1015.39 1015.07 1014.79 1014.63 1014.51 1014.35 1014.11 1013.71 1013.35 1013.03 1012.75 1012.55 1012.31 1012.35 1012.47 1012.27 1012.23 1012.19 1012.15 1012.15 1012.15 1012.11 1012.07 1012.15 1012.19 1012.39 1012.63 1012.71 1012.83 1013.03 1013.23 1013.39 1013.51 1013.67 1013.71 1013.71 1013.79 1013.79 1013.75 1013.67 1014.19 1014.79 1014.63 1014.55 1014.71 1015.07 1015.91 1015.91 1016.23 1016.91 1017.43 1017.79 1017.95 1018.51 1018.59 1018.95 1019.11 1019.19 1018.91 1019.31
1016.51 1016.23 1015.95 1015.63 1015.31 1014.91 1014.59 1014.39 1014.19 1013.95 1013.59 1013.23 1012.87 1012.55 1012.23 1011.91 1011.63 1011.43 1011.47 1011.47 1011.51 1011.51 1011.55 1011.59 1011.63 1011.59 1011.47 1011.59 1011.95 1012.15 1012.31 1012.51 1012.67 1012.83 1013.11 1013.27 1013.27 1013.23 1013.31 1013.55 1013.59 1013.55 1013.67 1013.79 1013.79 1013.91 1013.83 1013.91 1014.83 1014.91 1015.15 1015.99 1016.39 1016.87 1016.95 1017.35 1017.67 1017.87 1018.35 1018.43 1018.23 1018.27 1018.79
1016.55 1016.35 1016.07 1015.79 1015.51 1015.23 1014.83 1014.51 1014.19 1013.91 1013.55 1013.19 1012.79 1012.43 1012.07 1011.75 1011.43 1011.07 1010.75 1010.67 1010.79 1010.87 1010.87 1010.87 1010.91 1010.91 1010.75 1010.83 1011.19 1011.43 1011.75 1012.11 1012.27 1012.55 1012.71 1012.75 1012.67 1012.67 1012.75 1012.95 1013.07 1013.15 1013.31 1013.51 1013.55 1013.55 1013.55 1013.91 1014.27 1014.59 1014.99 1015.51 1015.83 1016.03 1016.11 1016.35 1016.55 1016.91 1017.27 1017.67 1018.19 1018.59 1018.71
1016.63 1016.35 1016.07 1015.87 1015.59 1015.19 1014.79 1014.43 1014.23 1013.91 1013.59 1013.23 1012.83 1012.43 1012.07 1011.67 1011.35 1010.95 1010.59 1010.31 1010.19 1010.23 1010.27 1010.23 1010.27 1010.31 1010.23 1010.31 1010.47 1010.71 1011.15 1011.51 1011.79 1012.11 1012.19 1012.23 1012.19 1012.27 1012.35 1012.27 1012.19 1012.59 1012.91 1012.99 1013.11 1013.27 1013.51 1013.83 1014.11 1014.31 1014.67 1014.99 1015.35 1015.75 1016.19 1016.55 1016.91 1017.19 1017.51 1017.87 1018.31 1018.31 1018.47
1016.59 1016.23 1015.99 1015.83 1015.59 1015.27 1014.75 1014.35 1014.15 1013.99 1013.67 1013.31 1012.83 1012.43 1012.07 1011.67 1011.27 1010.83 1010.51 1010.19 1009.99 1009.83 1009.67 1009.67 1009.71 1009.75 1009.71 1009.79 1009.91 1010.15 1010.59 1010.91 1011.31 1011.59 1011.59 1011.63 1011.75 1011.83 1011.95 1011.67 1011.83 1012.35 1012.55 1012.59 1012.79 1012.99 1013.31 1013.59 1013.83 1014.03 1014.23 1014.51 1014.79 1015.23 1015.75 1016.43 1016.91 1017.07 1017.35 1017.87 1017.83 1017.71 1018.07
1016.51 1016.27 1016.11 1015.83 1015.55 1015.19 1014.75 1014.39 1014.27 1014.07 1013.75 1013.35 1012.87 1012.51 1012.15 1011.71 1011.27 1010.79 1010.43 1010.07 1009.83 1009.59 1009.35 1009.19 1009.27 1009.35 1009.39 1009.39 1009.39 1009.71 1010.07 1010.35 1010.75 1010.95 1010.91 1011.07 1011.31 1011.43 1011.43 1011.11 1011.63 1012.31 1012.47 1012.51 1012.55 1012.55 1012.75 1013.03 1013.35 1013.55 1013.75 1013.95 1014.19 1014.67 1015.19 1015.63 1015.75 1015.87 1016.87 1016.99 1016.59 1016.87 1016.91
1016.59 1016.31 1016.07 1015.83 1015.47 1015.11 1014.83 1014.51 1014.31 1014.11 1013.79 1013.43 1012.99 1012.59 1012.27 1011.83 1011.39 1010.87 1010.39 1010.07 1009.63 1009.35 1009.15 1008.95 1008.99 1009.07 1009.07 1009.07 1009.03 1009.27 1009.43 1009.59 1009.99 1010.23 1010.35 1010.47 1010.75 1010.71 1010.51 1010.35 1011.27 1011.91 1012.11 1012.35 1012.63 1012.59 1012.71 1012.79 1012.91 1013.11 1013.39 1013.59 1013.79 1014.03 1014.39 1014.67 1014.91 1015.47 1015.87 1016.03 1016.19 1016.43 1016.79
1016.59 1016.35 1016.03 1015.71 1015.39 1015.07 1014.83 1014.59 1014.35 1014.11 1013.79 1013.47 1013.15 1012.75 1012.43 1012.07 1011.67 1011.15 1010.59 1010.23 1009.87 1009.51 1009.15 1008.99 1008.91 1008.91 1008.91 1008.83 1008.79 1008.91 1009.03 1009.07 1009.35 1009.67 1009.79 1010.07 1010.15 1009.99 1009.63 1010.03 1010.91 1011.11 1011.23 1011.79 1011.91 1012.07 1012.27 1012.43 1012.59 1012.75 1012.95 1013.19 1013.43 1013.63 1013.79 1014.15 1014.59 1014.79 1014.99 1015.31 1015.55 1015.79 1015.95
1016.47 1016.23 1015.95 1015.63 1015.35 1015.07 1014.83 1014.67 1014.43 1014.15 1013.91 1013.55 1013.23 1012.87 1012.55 1012.19 1011.83 1011.39 1010.87 1010.35 1009.95 1009.55 1009.19 1008.91 1008.79 1008.83 1008.83 1008.83 1008.71 1008.63 1008.55 1008.55 1008.59 1008.83 1009.15 1009.35 1009.23 1008.95 1008.99 1009.75 1010.27 1010.47 1010.87 1011.31 1011.43 1011.83 1012.23 1012.43 1012.59 1012.75 1012.79 1012.79 1012.91 1013.11 1013.35 1013.51 1013.83 1014.19 1014.31 1014.47 1014.67 1014.95 1015.19
1016.39 1016.15 1015.87 1015.55 1015.27 1015.07 1014.83 1014.63 1014.43 1014.19 1013.91 1013.71 1013.35 1012.99 1012.67 1012.27 1011.87 1011.51 1011.07 1010.47 1009.99 1009.63 1009.23 1008.91 1008.59 1008.47 1008.51 1008.51 1008.47 1008.35 1008.35 1008.19 1008.19 1008.23 1008.43 1008.47 1008.43 1008.67 1009.07 1009.43 1009.75 1010.23 1010.63 1010.95 1011.35 1011.71 1011.99 1012.27 1012.47 1012.63 1012.67 1012.71 1012.71 1012.67 1012.79 1013.07 1013.23 1013.39 1013.63 1013.67 1013.71 1013.95 1014.27
1016.35 1016.15 1015.79 1015.47 1015.23 1014.99 1014.75 1014.55 1014.39 1014.15 1013.95 1013.71 1013.47 1013.07 1012.67 1012.27 1011.83 1011.43 1011.11 1010.67 1010.15 1009.75 1009.39 1008.99 1008.67 1008.35 1008.27 1008.23 1008.07 1008.03 1007.95 1007.83 1007.79 1007.83 1007.71 1007.83 1008.15 1008.39 1008.63 1009.11 1009.63 1010.03 1010.39 1010.79 1011.07 1011.39 1011.63 1011.79 1012.03 1012.27 1012.39 1012.47 1012.51 1012.47 1012.59 1012.67 1012.67 1012.75 1012.95 1013.19 1013.43 1013.59 1013.71
1016.31 1016.03 1015.75 1015.43 1015.07 1014.79 1014.59 1014.39 1014.27 1014.11 1013.87 1013.59 1013.27 1012.95 1012.51 1012.11 1011.75 1011.39 1011.07 1010.67 1010.23 1009.79 1009.51 1009.15 1008.79 1008.43 1008.15 1007.91 1007.71 1007.63 1007.59 1007.51 1007.47 1007.39 1007.35 1007.47 1007.75 1008.07 1008.43 1008.91 1009.35 1009.75 1010.11 1010.47 1010.79 1010.99 1011.11 1011.27 1011.43 1011.67 1011.83 1011.91 1012.03 1012.19 1012.19 1012.23 1012.31 1012.51 1012.71 1012.87 1013.03 1013.31 1013.55
1016.23 1015.91 1015.55 1015.23 1014.95 1014.59 1014.31 1014.15 1014.03 1013.87 1013.59 1013.35 1012.99 1012.67 1012.31 1011.91 1011.55 1011.27 1010.95 1010.55 1010.11 1009.87 1009.55 1009.19 1008.83 1008.43 1008.11 1007.75 1007.43 1007.23 1007.23 1007.23 1007.11 1007.07 1007.11 1007.15 1007.27 1007.71 1008.15 1008.55 1008.95 1009.31 1009.67 1010.07 1010.19 1010.31 1010.55 1010.67 1010.75 1010.87 1011.03 1011.23 1011.51 1011.75 1012.03 1012.23 1012.35 1012.51 1012.67 1012.79 1012.99 1013.15 1013.39
1015.99 1015.71 1015.35 1015.03 1014.67 1014.35 1014.07 1013.83 1013.75 1013.51 1013.27 1013.03 1012.75 1012.39 1012.03 1011.71 1011.39 1011.07 1010.79 1010.47 1010.03 1009.63 1009.31 1008.99 1008.67 1008.31 1007.91 1007.55 1007.27 1007.07 1006.99 1006.99 1006.91 1006.87 1006.87 1006.91 1007.07 1007.35 1007.63 1007.99 1008.47 1008.83 1009.15 1009.35 1009.51 1009.79 1009.91 1009.91 1010.15 1010.39 1010.55 1010.87 1011.19 1011.47 1011.67 1011.87 1012.23 1012.43 1012.63 1012.83 1013.11 1013.35 1013.47
1015.79 1015.43 1015.07 1014.67 1014.31 1014.03 1013.75 1013.63 1013.47 1013.27 1012.99 1012.75 1012.51 1012.19 1011.79 1011.43 1011.11 1010.79 1010.55 1010.31 1009.99 1009.59 1009.27 1008.91 1008.59 1008.27 1007.91 1007.51 1007.15 1006.79 1006.55 1006.51 1006.47 1006.55 1006.59 1006.67 1006.83 1006.95 1007.23 1007.47 1007.79 1008.11 1008.39 1008.59 1008.83 1009.03 1009.19 1009.39 1009.63 1009.99 1010.39 1010.71 1010.87 1011.11 1011.23 1011.43 1011.79 1012.03 1012.23 1012.47 1012.83 1013.07 1013.15
1015.51 1015.19 1014.87 1014.59 1014.23 1013.91 1013.47 1013.23 1013.03 1012.95 1012.71 1012.31 1011.95 1011.55 1011.19 1010.95 1010.75 1010.59 1010.43 1010.11 1009.75 1009.43 1009.03 1008.71 1008.43 1008.15 1007.79 1007.31 1006.87 1006.47 1006.23 1006.15 1006.19 1006.27 1006.39 1006.47 1006.51 1006.59 1006.67 1006.95 1007.23 1007.55 1007.79 1007.95 1008.15 1008.47 1008.75 1009.11 1009.43 1009.75 1009.95 1010.19 1010.43 1010.59 1010.87 1011.15 1011.47 1011.63 1011.87 1012.07 1012.55 1012.83 1012.79
1015.03 1014.79 1014.71 1014.51 1014.27 1013.79 1013.23 1012.75 1012.63 1012.39 1012.19 1011.91 1011.63 1011.51 1011.15 1010.75 1010.39 1010.07 1009.83 1009.59 1009.19 1008.75 1008.55 1008.47 1008.35 1008.15 1007.79 1007.39 1006.91 1006.43 1006.07 1005.95 1006.03 1006.07 1006.07 1006.15 1006.19 1006.31 1006.47 1006.75 1006.99 1007.23 1007.43 1007.67 1007.95 1008.23 1008.47 1008.83 1009.07 1009.39 1009.55 1009.87 1010.11 1010.31 1010.51 1010.71 1010.99 1011.15 1011.43 1011.71 1012.03 1012.15 1012.19
1014.91 1014.55 1014.39 1014.23 1013.95 1013.79 1013.43 1012.83 1012.39 1012.11 1011.83 1011.59 1011.39 1011.23 1010.99 1010.63 1010.19 1009.87 1009.55 1009.15 1008.79 1008.55 1008.39 1008.31 1008.31 1008.15 1007.99 1007.63 1007.23 1006.79 1006.43 1006.23 1006.11 1006.11 1006.19 1006.27 1006.31 1006.47 1006.71 1006.91 1007.07 1007.23 1007.47 1007.71 1007.91 1008.11 1008.31 1008.55 1008.75 1009.07 1009.27 1009.51 1009.71 1009.87 1010.07 1010.19 1010.35 1010.67 1010.87 1011.35 1011.47 1011.71 1011.75
1014.63 1014.39 1014.23 1014.07 1013.63 1013.23 1013.15 1012.79 1012.35 1012.11 1011.75 1011.47 1011.23 1010.95 1010.67 1010.35 1009.95 1009.63 1009.35 1008.99 1008.63 1008.39 1008.43 1008.35 1008.27 1008.07 1007.91 1007.71 1007.55 1007.31 1006.95 1006.67 1006.55 1006.43 1006.39 1006.51 1006.71 1006.83 1006.95 1007.11 1007.27 1007.43 1007.55 1007.75 1007.91 1008.11 1008.23 1008.43 1008.59 1008.79 1008.95 1009.19 1009.27 1009.47 1009.59 1009.87 1009.99 1010.23 1010.47 1010.63 1010.87 1011.11 1011.23
1014.43 1014.19 1013.99 1013.71 1013.47 1013.15 1012.79 1012.63 1012.35 1011.99 1011.67 1011.35 1010.99 1010.71 1010.47 1010.19 1009.87 1009.51 1009.23 1008.95 1008.67 1008.43 1008.23 1008.23 1008.19 1008.03 1007.87 1007.71 1007.59 1007.31 1007.19 1007.07 1007.03 1006.95 1006.95 1006.95 1007.03 1007.15 1007.23 1007.31 1007.39 1007.43 1007.59 1007.71 1007.91 1008.07 1008.19 1008.35 1008.47 1008.59 1008.75 1008.87 1009.07 1009.27 1009.43 1009.55 1009.83 1009.95 1010.11 1010.23 1010.39 1010.51 1010.67
1014.23 1013.99 1013.75 1013.55 1013.35 1013.15 1012.87 1012.47 1012.15 1011.83 1011.47 1011.15 1010.83 1010.51 1010.31 1010.03 1009.75 1009.43 1009.07 1008.83 1008.59 1008.47 1008.19 1008.07 1007.99 1007.87 1007.71 1007.63 1007.51 1007.35 1007.27 1007.19 1007.15 1007.15 1007.15 1007.19 1007.23 1007.23 1007.23 1007.31 1007.35 1007.43 1007.63 1007.75 1007.83 1007.91 1007.99 1008.07 1008.23 1008.39 1008.55 1008.71 1008.91 1009.07 1009.23 1009.31 1009.47 1009.63 1009.79 1009.95 1010.07 1010.15 1010.35
1014.11 1013.87 1013.67 1013.47 1013.23 1012.99 1012.67 1012.35 1011.99 1011.67 1011.35 1011.03 1010.67 1010.39 1010.15 1009.91 1009.55 1009.27 1009.03 1008.87 1008.59 1008.31 1008.15 1007.95 1007.87 1007.75 1007.63 1007.51 1007.39 1007.27 1007.23 1007.15 1007.07 1007.07 1007.11 1007.15 1007.19 1007.23 1007.23 1007.27 1007.35 1007.51 1007.59 1007.67 1007.71 1007.79 1007.87 1008.03 1008.11 1008.23 1008.39 1008.51 1008.67 1008.79 1008.95 1009.07 1009.15 1009.35 1009.51 1009.63 1009.67 1009.79 1009.99
1013.87 1013.71 1013.59 1013.31 1013.03 1012.75 1012.51 1012.23 1011.91 1011.55 1011.27 1010.95 1010.63 1010.31 1010.03 1009.79 1009.63 1009.43 1009.15 1008.95 1008.75 1008.47 1008.19 1007.99 1007.79 1007.67 1007.51 1007.47 1007.39 1007.27 1007.23 1007.15 1007.07 1007.07 1007.07 1007.07 1007.11 1007.15 1007.19 1007.23 1007.31 1007.35 1007.43 1007.51 1007.59 1007.71 1007.79 1007.87 1007.99 1008.07 1008.19 1008.31 1008.39 1008.55 1008.71 1008.79 1008.91 1008.99 1009.11 1009.23 1009.43 1009.63 1009.83
1013.71 1013.59 1013.31 1013.07 1012.79 1012.59 1012.39 1012.11 1011.79 1011.51 1011.19 1010.87 1010.51 1010.23 1010.03 1009.91 1009.79 1009.59 1009.35 1009.07 1008.71 1008.51 1008.19 1008.03 1007.83 1007.67 1007.51 1007.43 1007.35 1007.27 1007.23 1007.15 1007.11 1007.03 1007.03 1006.99 1007.03 1006.99 1006.99 1007.07 1007.07 1007.11 1007.15 1007.23 1007.31 1007.39 1007.47 1007.59 1007.75 1007.83 1007.95 1008.07 1008.19 1008.27 1008.35 1008.47 1008.59 1008.71 1008.83 1008.99 1009.19 1009.35 1009.55
Wind_Speed
9 9 9 10 10 10 10 9 9 9 9 9 10 9 10 9 9 11 11 9 11 10 10 12 13 13 12 9 10 10 9 9 9 8 9 8 9 10 9 10 11 13 14 2 1 3 5 6 8 7 10 11 9 7 8 9 8 8 8 7 6 6 13
7 7 8 9 10 10 10 9 9 8 8 10 10 10 8 9 10 11 11 9 11 10 10 10 12 13 11 10 12 11 11 10 9 9 9 10 10 11 10 10 11 13 11 12 3 4 1 4 7 8 9 13 12 10 8 9 8 7 8 7 6 6 6
6 7 7 8 8 8 9 9 9 8 9 10 11 11 10 10 11 12 12 12 13 12 11 11 12 13 10 8 11 12 11 9 10 9 11 13 10 12 11 9 11 11 12 13 7 5 6 7 8 10 10 11 10 10 10 10 9 9 7 6 6 7 5
5 5 6 7 8 8 8 8 8 9 10 11 11 11 12 11 11 12 12 13 13 12 11 13 13 13 10 10 12 12 10 10 9 10 11 11 11 10 11 9 9 12 12 10 10 7 9 7 8 7 6 7 7 9 9 9 7 4 6 7 6 7 6
4 5 5 7 8 9 9 9 9 10 10 10 10 11 11 11 11 12 12 13 13 12 12 13 14 13 10 12 13 13 11 10 11 11 10 12 11 10 10 8 9 11 10 10 12 7 5 6 6 4 5 8 10 7 5 4 7 7 7 7 5 5 6
6 4 6 7 8 8 8 8 8 9 10 10 10 10 10 10 11 11 12 12 12 12 12 13 14 13 12 13 15 15 12 12 14 12 12 13 11 10 8 9 10 9 10 12 13 9 5 5 8 4 5 7 9 10 8 6 5 3 5 5 6 6 5
6 6 5 7 6 7 8 8 8 8 8 8 8 9 10 11 11 11 11 11 12 12 12 13 13 13 12 14 15 15 14 13 13 13 14 13 13 11 10 11 11 10 11 12 12 10 8 7 6 8 9 6 7 7 8 11 7 8 6 5 7 8 6
7 7 5 6 6 7 6 7 7 6 7 7 8 9 10 10 11 11 12 12 12 12 13 13 13 13 13 14 15 14 14 13 13 11 12 12 10 11 11 11 10 9 10 11 11 11 10 8 8 6 3 3 6 5 4 6 8 11 10 9 8 9 7
7 7 7 6 6 6 5 6 7 6 7 7 9 8 10 11 12 12 12 12 13 12 13 12 12 13 13 15 17 19 18 16 15 12 13 12 11 12 12 11 10 10 10 10 11 11 8 7 8 9 9 11 11 14 14 7 8 10 6 4 5 7 6
8 8 7 7 7 5 5 5 5 8 12 11 9 9 9 10 11 11 12 13 13 13 13 13 13 13 18 19 20 21 21 21 21 21 17 12 12 13 12 12 12 12 12 11 12 13 11 10 13 12 13 14 13 8 4 7 8 10 8 3 8 4 6
9 8 8 9 8 8 7 5 5 10 13 17 18 12 10 11 11 11 12 13 13 14 13 12 13 12 15 17 18 18 21 21 22 22 22 20 17 16 16 14 14 14 12 12 13 12 10 14 15 13 10 12 11 8 10 9 8 9 6 8 8 12 1
9 9 8 8 8 8 8 7 8 12 16 18 19 17 12 11 11 11 11 12 13 13 12 12 12 11 11 12 14 14 15 19 22 22 22 22 20 19 21 21 17 15 13 14 13 11 14 13 14 12 9 11 10 10 8 9 9 9 10 9 10 10 9
11 11 10 10 10 9 8 7 9 13 19 19 20 20 17 10 11 12 13 13 13 13 13 12 11 11 10 11 16 14 14 14 14 18 22 21 21 22 22 22 23 21 16 13 14 16 16 14 12 10 12 10 10 9 12 10 9 9 8 10 11 11 6
11 11 10 10 12 11 10 9 9 15 20 20 21 21 18 13 13 12 12 14 14 13 13 13 12 12 12 11 10 11 13 13 13 12 13 15 15 15 18 20 23 24 22 16 14 14 16 13 9 13 9 9 11 12 13 10 11 10 10 11 13 8 6
10 11 11 11 11 10 11 10 16 19 20 20 21 22 18 12 12 12 12 11 12 13 13 13 13 13 14 12 11 11 13 13 13 12 12 14 15 16 15 14 16 17 16 15 13 13 13 10 9 11 8 10 10 13 11 10 11 10 10 6 1 1 3
7 9 10 10 11 11 12 11 17 19 20 21 21 22 13 11 12 12 12 13 11 10 11 12 13 13 14 14 13 13 17 16 12 12 15 16 15 14 13 14 15 14 17 15 14 12 11 9 7 10 10 10 10 9 7 3 2 2 4 5 5 9 4
9 8 8 11 11 12 12 10 14 19 21 21 22 18 11 12 11 11 12 12 12 11 10 11 12 13 13 13 13 14 16 19 18 14 17 17 16 14 13 14 12 12 19 24 24 21 19 17 16 16 18 18 19 12 9 6 6 9 6 6 9 8 6
9 9 8 10 11 10 11 10 13 19 19 21 21 18 13 11 11 12 12 11 11 10 11 11 15 15 13 13 13 14 16 19 17 17 19 18 18 18 17 16 10 7 10 17 22 26 25 22 19 18 18 19 21 18 14 11 13 10 8 11 11 10 7
8 8 8 8 10 15 13 10 12 17 19 20 20 16 11 11 10 11 10 10 11 11 10 11 9 14 15 14 14 17 20 21 18 17 17 18 16 18 19 16 9 10 11 10 11 13 13 13 15 14 12 12 17 18 18 14 12 8 10 11 9 9 6
7 9 8 8 9 9 10 10 9 11 19 19 20 20 13 10 11 11 12 11 11 12 10 9 8 8 13 18 19 18 19 20 20 19 17 15 14 16 20 11 9 12 12 11 13 13 13 14 12 10 10 11 12 13 13 12 12 11 10 11 10 9 10
7 7 8 8 8 8 8 8 10 10 18 19 20 21 17 10 11 11 11 10 10 9 10 10 9 7 9 14 18 19 20 23 25 21 18 17 16 17 15 9 9 13 13 12 12 10 10 9 9 9 8 9 10 11 12 12 11 12 12 12 12 11 11
7 7 8 7 7 7 7 7 9 9 13 18 21 21 21 13 11 12 11 12 11 10 9 9 9 8 9 13 18 20 20 26 26 27 16 16 22 21 20 11 9 7 8 9 8 8 8 8 9 9 9 9 8 9 11 12 12 12 13 13 12 12 11
7 8 8 8 7 6 7 6 7 10 10 15 20 21 20 21 16 18 13 11 12 11 10 10 11 10 11 14 17 18 20 23 26 22 17 20 20 22 19 14 7 7 7 7 8 8 9 9 9 9 10 10 10 10 9 10 12 13 12 11 10 10 10
7 7 8 9 9 7 7 6 5 7 11 12 16 18 20 20 20 20 13 12 11 11 10 10 10 11 16 16 17 18 19 20 22 16 21 24 19 16 16 10 9 8 8 8 8 9 9 9 9 9 9 10 10 10 12 12 11 10 11 11 9 9 9
6 8 8 8 9 9 8 7 6 7 8 12 15 17 18 19 20 20 20 14 10 10 11 15 23 24 24 23 19 18 19 18 21 24 22 23 21 17 9 10 9 9 8 9 10 9 9 9 9 10 9 8 8 8 7 7 7 6 5 5 5 6 5
7 7 8 9 8 8 9 8 8 8 7 8 10 12 15 17 17 17 18 18 14 18 22 22 20 22 21 18 15 11 11 10 11 16 21 22 19 10 9 9 9 9 10 10 9 9 10 10 8 8 9 7 7 7 8 7 6 7 6 6 5 5 6
8 8 8 8 8 9 9 9 8 8 7 7 7 7 8 10 10 13 13 11 10 10 10 12 13 13 17 16 19 17 15 14 14 13 12 11 11 9 8 9 9 10 10 10 10 9 9 8 7 6 6 7 7 8 7 7 8 7 7 7 6 7 8
8 8 8 9 9 9 9 9 7 7 8 8 8 9 10 8 7 6 6 8 9 9 10 9 10 13 10 10 10 10 9 10 9 8 7 8 8 9 8 9 12 11 9 9 8 8 7 6 6 7 8 7 8 8 7 7 7 8 8 7 6 6 9
9 8 7 8 9 9 9 8 7 6 11 14 17 15 13 11 9 9 8 10 15 12 8 6 7 7 8 7 8 8 7 7 7 6 7 9 8 8 7 7 7 8 8 6 6 7 7 7 7 7 7 7 7 7 7 7 8 8 8 6 7 9 8
10 9 8 9 9 7 9 10 11 19 24 21 20 21 22 20 20 18 15 17 20 13 8 7 6 7 7 7 6 6 5 5 5 6 5 5 3 3 4 5 4 5 4 5 5 5 5 6 6 7 7 7 8 7 7 9 9 9 8 8 8 8 8
18 19 18 13 10 10 17 21 23 22 21 21 21 22 22 21 19 19 19 20 13 8 6 6 6 7 6 6 5 5 5 4 4 4 4 4 3 2 3 3 4 4 3 4 5 5 5 4 5 6 7 8 8 8 8 7 8 7 8 9 9 9 8
17 18 17 18 16 14 10 15 19 21 21 22 22 20 20 20 20 20 20 19 17 9 7 5 5 6 6 5 5 6 5 4 4 3 2 1 1 2 2 3 4 4 5 4 4 5 5 6 6 6 6 6 6 6 7 7 7 8 8 8 8 9 8
15 16 16 17 18 19 18 18 19 21 21 21 20 19 18 19 20 19 19 18 11 7 7 6 5 5 5 5 5 5 5 4 4 3 3 2 3 3 3 4 4 2 3 4 5 5 6 6 6 6 6 6 6 6 7 7 7 7 7 7 8 8 7
11 13 15 15 17 18 18 19 20 20 20 20 19 18 18 18 15 18 18 14 10 7 7 6 5 5 5 5 5 5 5 5 5 4 4 4 4 5 4 4 3 4 6 5 6 6 6 6 6 6 7 7 6 7 7 7 7 7 8 8 8 8 7
7 8 10 10 11 14 18 18 19 19 19 20 19 18 18 17 10 9 7 7 5 7 7 6 6 6 5 4 5 5 5 5 5 5 5 5 5 5 4 4 5 6 6 6 6 6 6 7 7 7 7 7 7 6 7 7 7 7 8 8 7 7 7
7 7 7 15 15 16 16 17 18 19 19 19 18 17 16 9 7 7 7 7 7 6 7 6 6 5 6 5 5 5 5 5 5 5 5 4 5 5 5 5 5 6 6 6 7 7 7 7 7 7 7 6 7 8 8 7 7 7 7 7 7 6 6
Wind_Direction
215 215 215 217 216 216 216 213 214 210 211 215 220 221 223 225 220 228 234 231 236 232 231 234 238 239 236 231 230 232 227 227 220 217 222 217 214 220 212 208 219 232 248 227 298 188 198 184 152 165 194 195 195 194 203 184 197 191 199 203 202 207 224
226 221 220 220 222 221 220 218 216 210 208 215 219 223 219 222 223 229 234 229 237 232 233 235 239 242 236 228 233 233 229 223 218 216 217 217 212 218 216 207 208 230 238 242 123 221 126 140 184 196 190 196 177 194 194 185 174 196 199 200 201 207 219
238 231 227 229 229 225 224 220 218 212 211 217 218 222 222 221 222 226 230 229 233 231 229 235 237 240 234 230 235 235 232 224 222 218 219 223 213 221 218 204 211 217 232 237 224 180 184 187 193 200 192 195 199 195 193 194 194 196 199 202 201 205 209
258 247 238 238 237 231 228 222 220 217 216 218 217 222 224 223 224 227 229 231 233 230 227 231 236 238 227 227 234 235 228 227 222 220 223 226 223 222 223 208 210 219 228 228 228 198 192 194 184 210 192 193 193 188 195 203 197 191 201 202 210 207 211
273 265 255 246 240 237 232 226 221 222 223 222 220 223 225 225 226 228 230 231 232 230 228 231 232 235 220 224 232 235 226 225 221 224 223 227 224 219 221 213 210 219 221 229 231 215 188 185 201 192 185 183 182 192 193 193 197 202 204 215 211 216 223
293 266 262 255 253 247 245 239 231 228 227 224 223 226 229 230 230 231 231 233 232 230 228 231 233 232 222 223 225 231 226 223 223 221 224 227 224 221 217 218 220 216 221 225 233 219 185 190 185 176 200 191 187 184 192 203 212 211 221 209 228 225 217
303 289 273 270 265 261 254 251 242 238 236 232 228 227 230 232 233 235 234 234 232 230 230 231 234 232 225 225 227 230 227 222 223 221 225 223 222 219 214 219 220 213 218 223 228 228 211 198 208 192 198 188 184 200 197 196 189 226 215 210 219 235 222
310 299 289 279 270 267 265 260 259 250 244 239 233 229 232 232 234 237 237 238 235 233 232 232 232 231 228 226 227 226 228 220 225 220 225 223 215 217 216 220 218 214 218 223 226 225 218 205 197 208 192 103 159 177 244 202 194 215 215 217 220 225 224
316 311 306 295 282 277 271 265 259 252 243 242 241 233 236 235 235 236 239 239 240 237 236 236 235 234 232 229 230 226 225 222 219 216 224 221 207 214 214 218 216 216 217 222 224 230 220 209 213 211 184 181 189 200 205 176 190 225 221 203 224 232 212
323 318 312 308 304 295 283 271 265 258 252 242 239 239 238 241 239 238 240 242 244 244 239 237 237 237 234 232 232 230 228 226 223 223 223 219 203 210 212 214 215 215 215 215 219 224 211 211 223 212 199 198 203 192 157 179 197 220 219 191 244 264 220
323 321 319 317 313 311 302 286 271 263 262 261 251 239 241 240 242 238 239 242 243 247 244 240 237 239 237 236 236 235 233 230 228 227 227 227 216 210 207 210 214 219 211 211 222 222 212 220 225 218 202 206 201 190 197 196 194 210 192 204 214 241 285
327 325 320 314 311 306 303 299 290 282 283 279 276 267 249 240 242 242 242 241 244 247 248 246 242 237 235 233 232 232 232 232 231 229 229 228 225 220 218 216 211 212 211 213 220 220 222 219 225 219 194 206 189 198 196 206 203 203 202 202 214 230 226
332 329 326 319 313 308 303 299 293 294 297 295 291 285 278 261 241 241 245 244 244 245 245 246 246 247 237 234 232 231 232 232 232 233 232 232 230 230 225 223 225 224 219 209 215 221 225 217 218 210 215 197 189 185 205 204 206 210 203 209 220 226 203
328 325 324 322 320 316 315 309 307 303 303 300 297 293 288 279 274 259 244 244 243 244 245 241 244 247 246 236 226 225 227 228 231 229 229 231 231 231 232 230 228 228 228 222 220 222 229 224 191 218 201 181 183 187 206 196 210 205 208 212 221 215 203
328 323 321 322 319 316 312 312 314 311 308 305 301 297 294 287 283 279 272 256 242 243 245 243 240 241 245 243 228 223 218 221 224 225 227 229 230 231 230 227 226 226 225 226 227 229 235 229 203 210 189 180 189 201 208 200 209 204 212 216 183 163 197
314 314 315 315 316 312 312 311 315 315 313 310 307 302 298 291 285 282 277 274 267 248 243 244 242 243 243 241 237 226 216 215 218 220 226 229 232 233 233 234 229 226 225 226 227 228 228 222 203 195 190 183 186 196 193 179 106 103 146 152 187 223 184
313 311 316 317 315 309 306 310 318 320 316 313 310 307 301 296 289 283 279 276 276 271 257 246 239 239 242 241 239 230 216 216 211 218 224 228 230 231 233 237 230 215 225 230 230 231 229 223 215 209 205 200 195 186 174 171 194 213 164 180 222 227 193
315 316 316 313 309 309 311 314 320 319 318 316 313 311 306 301 294 287 285 284 279 275 270 259 243 238 240 242 241 231 217 215 209 217 223 226 229 233 234 238 224 207 224 232 237 236 234 229 222 217 216 212 211 195 175 181 211 201 167 216 219 230 212
310 309 311 311 309 314 315 312 317 318 319 319 316 315 309 305 299 294 290 287 281 276 273 272 259 241 240 240 241 234 231 223 209 215 222 223 226 231 234 234 208 204 218 213 220 234 237 238 229 223 216 218 218 212 197 201 210 187 193 217 218 223 221
304 305 306 308 310 310 314 314 313 317 318 319 318 316 314 306 301 296 296 294 291 293 290 287 276 252 241 242 241 238 233 227 213 215 221 222 225 231 237 225 202 210 213 208 213 220 222 226 229 225 221 217 214 219 219 206 201 205 205 213 217 216 212
302 303 302 306 306 305 308 311 314 315 319 318 317 314 313 306 302 302 300 299 294 287 288 284 276 262 248 244 244 240 235 231 226 217 220 220 226 225 233 214 205 218 207 210 215 216 218 223 226 225 227 221 214 212 216 219 205 204 210 211 215 214 215
305 304 302 301 302 303 301 305 308 312 318 320 318 315 311 307 301 301 300 297 291 290 288 286 287 275 245 239 243 244 240 239 233 226 221 224 228 233 233 222 213 199 199 207 210 208 213 214 215 219 224 224 223 215 210 213 219 212 210 217 218 213 214
303 303 303 301 299 296 295 294 299 307 312 316 316 313 310 305 303 302 301 298 296 297 296 299 295 289 268 248 247 242 238 237 235 233 230 227 227 231 227 218 201 193 194 200 206 207 215 215 213 215 219 220 224 223 217 216 218 221 218 216 218 220 222
303 302 300 301 299 298 294 291 290 297 302 303 308 313 311 309 307 305 301 297 294 297 297 299 298 298 296 279 258 239 230 233 234 232 232 230 221 211 210 208 206 202 202 203 208 212 217 219 216 215 220 219 218 219 220 223 224 224 223 223 221 217 220
299 299 300 299 299 299 299 299 298 297 298 299 305 307 308 308 306 306 305 300 294 294 295 297 297 296 293 294 281 236 230 232 234 234 233 232 227 211 199 207 203 205 202 208 214 215 218 221 216 215 218 216 212 215 218 224 230 222 223 222 230 232 218
298 299 300 296 295 298 301 307 305 302 301 303 301 306 306 302 300 300 299 297 295 296 298 300 302 301 299 294 292 257 236 239 238 237 236 235 230 211 203 198 201 201 207 215 216 214 218 219 211 211 211 201 195 197 203 196 204 212 220 206 208 224 242
300 300 298 297 301 303 304 303 301 299 299 298 294 285 286 295 294 294 294 293 290 293 293 297 300 301 298 292 285 271 240 236 238 239 235 234 228 218 200 199 197 201 206 213 213 216 218 215 208 195 184 192 194 201 202 193 198 206 215 204 209 218 234
294 297 302 304 305 303 299 297 297 299 300 303 307 310 308 300 292 288 280 287 287 281 286 291 296 299 293 286 278 267 242 235 236 231 228 224 219 218 211 200 203 207 210 215 214 213 210 201 189 189 196 194 199 205 196 189 194 205 213 204 197 211 229
293 293 295 299 303 305 301 298 301 301 309 306 309 312 312 311 309 305 298 293 295 292 283 287 295 295 293 282 273 264 247 233 224 220 218 217 217 211 208 205 197 203 205 196 185 196 196 196 191 198 196 197 203 203 199 196 201 209 204 209 197 219 219
293 296 303 301 294 293 299 306 308 310 310 308 308 308 308 305 304 304 305 305 303 300 297 294 292 288 286 287 286 271 253 236 214 213 212 222 202 172 169 169 173 173 168 156 173 178 179 191 191 198 197 200 207 208 202 203 202 210 200 203 210 217 222
301 300 299 299 299 298 300 302 305 307 309 309 307 307 308 308 307 306 307 309 308 300 286 288 287 285 278 278 284 288 283 270 259 237 223 212 198 170 164 164 166 178 167 186 192 196 194 190 194 204 201 205 208 208 208 201 207 205 205 209 211 216 221
299 299 300 300 300 303 305 305 306 308 308 307 306 307 308 310 308 306 306 306 307 297 287 273 274 278 273 271 274 270 279 290 288 296 297 293 196 227 192 196 205 198 189 208 208 216 216 213 213 213 213 212 211 205 209 203 204 204 208 215 215 220 219
301 301 302 303 303 303 303 305 307 308 309 309 308 308 309 312 311 308 304 305 299 281 282 273 267 265 270 265 261 267 268 271 271 269 269 247 250 251 240 227 237 222 220 216 225 226 233 232 231 226 222 221 214 207 213 208 210 210 212 214 219 224 217
294 299 302 301 302 304 306 308 310 312 313 314 313 311 311 312 312 311 307 304 298 294 281 276 268 267 266 269 268 271 270 271 269 259 251 248 240 245 243 242 219 218 229 227 234 233 238 236 237 232 231 230 222 220 220 220 217 209 212 219 220 225 222
303 296 295 296 302 305 308 311 312 314 315 315 313 310 311 315 315 314 313 307 289 290 284 278 269 267 268 264 270 274 275 274 273 271 264 257 258 251 246 236 222 221 219 222 223 225 226 224 225 226 224 225 223 219 219 221 219 218 218 221 221 220 225
292 293 298 301 301 306 309 310 312 313 314 314 312 310 314 314 310 307 304 302 298 289 285 277 275 271 270 268 266 270 270 267 268 264 261 253 246 247 239 234 229 225 217 216 217 220 221 220 220 220 221 220 223 223 221 219 218 220 219 219 222 219 218